Year,Month,Day,Hour,Minute,Value (Times are PST for temperature in C)
2015,06,30,00,00,21.30
2015,06,30,00,01,21.30
2015,06,30,00,02,21.30
2015,06,30,00,03,21.30
2015,06,30,00,04,21.30
2015,06,30,00,05,21.20
2015,06,30,00,06,21.20
2015,06,30,00,07,21.20
2015,06,30,00,08,21.20
2015,06,30,00,09,21.20
2015,06,30,00,10,21.10
2015,06,30,00,11,21.10
2015,06,30,00,12,21.10
2015,06,30,00,13,21.10
2015,06,30,00,14,21.10
2015,06,30,00,15,21.10
2015,06,30,00,16,21.10
2015,06,30,00,17,21.10
2015,06,30,00,18,21.10
2015,06,30,00,19,21.10
2015,06,30,00,20,21.10
2015,06,30,00,21,21.10
2015,06,30,00,22,21.10
2015,06,30,00,23,21.10
2015,06,30,00,24,21.10
2015,06,30,00,25,21.10
2015,06,30,00,26,21.10
2015,06,30,00,27,21.10
2015,06,30,00,28,21.10
2015,06,30,00,29,21.10
2015,06,30,00,30,21.10
2015,06,30,00,31,21.10
2015,06,30,00,32,21.10
2015,06,30,00,33,21.10
2015,06,30,00,34,21.10
2015,06,30,00,35,21.10
2015,06,30,00,36,21.10
2015,06,30,00,37,21.10
2015,06,30,00,38,21.10
2015,06,30,00,39,21.00
2015,06,30,00,40,21.00
2015,06,30,00,41,21.00
2015,06,30,00,42,21.00
2015,06,30,00,43,21.00
2015,06,30,00,44,20.90
2015,06,30,00,45,20.90
2015,06,30,00,46,20.90
2015,06,30,00,47,20.90
2015,06,30,00,48,20.90
2015,06,30,00,49,20.80
2015,06,30,00,50,20.80
2015,06,30,00,51,20.80
2015,06,30,00,52,20.80
2015,06,30,00,53,20.80
2015,06,30,00,54,20.80
2015,06,30,00,55,20.70
2015,06,30,00,56,20.70
2015,06,30,00,57,20.60
2015,06,30,00,58,20.60
2015,06,30,00,59,20.60
2015,06,30,01,00,20.50
2015,06,30,01,01,20.50
2015,06,30,01,02,20.40
2015,06,30,01,03,20.40
2015,06,30,01,04,20.40
2015,06,30,01,05,20.40
2015,06,30,01,06,20.40
2015,06,30,01,07,20.40
2015,06,30,01,08,20.30
2015,06,30,01,09,20.30
2015,06,30,01,10,20.30
2015,06,30,01,11,20.30
2015,06,30,01,12,20.30
2015,06,30,01,13,20.30
2015,06,30,01,14,20.30
2015,06,30,01,15,20.30
2015,06,30,01,16,20.20
2015,06,30,01,17,20.20
2015,06,30,01,18,20.20
2015,06,30,01,19,20.20
2015,06,30,01,20,20.20
2015,06,30,01,21,20.20
2015,06,30,01,22,20.10
2015,06,30,01,23,20.10
2015,06,30,01,24,20.10
2015,06,30,01,25,20.10
2015,06,30,01,26,20.00
2015,06,30,01,27,20.00
2015,06,30,01,28,20.00
2015,06,30,01,29,19.90
2015,06,30,01,30,19.90
2015,06,30,01,31,19.90
2015,06,30,01,32,19.90
2015,06,30,01,33,19.80
2015,06,30,01,34,19.80
2015,06,30,01,35,19.80
2015,06,30,01,36,19.70
2015,06,30,01,37,19.70
2015,06,30,01,38,19.60
2015,06,30,01,39,19.60
2015,06,30,01,40,19.50
2015,06,30,01,41,19.50
2015,06,30,01,42,19.40
2015,06,30,01,43,19.40
2015,06,30,01,44,19.40
2015,06,30,01,45,19.30
2015,06,30,01,46,19.30
2015,06,30,01,47,19.30
2015,06,30,01,48,19.30
2015,06,30,01,49,19.30
2015,06,30,01,50,19.30
2015,06,30,01,51,19.20
2015,06,30,01,52,19.20
2015,06,30,01,53,19.20
2015,06,30,01,54,19.20
2015,06,30,01,55,19.20
2015,06,30,01,56,19.20
2015,06,30,01,57,19.10
2015,06,30,01,58,19.10
2015,06,30,01,59,19.10
2015,06,30,02,00,19.10
2015,06,30,02,01,19.10
2015,06,30,02,02,19.10
2015,06,30,02,03,19.10
2015,06,30,02,04,19.10
2015,06,30,02,05,19.10
2015,06,30,02,06,19.10
2015,06,30,02,07,19.10
2015,06,30,02,08,19.10
2015,06,30,02,09,19.10
2015,06,30,02,10,19.10
2015,06,30,02,11,19.10
2015,06,30,02,12,19.10
2015,06,30,02,13,19.10
2015,06,30,02,14,19.10
2015,06,30,02,15,19.10
2015,06,30,02,16,19.10
2015,06,30,02,17,19.10
2015,06,30,02,18,19.10
2015,06,30,02,19,19.10
2015,06,30,02,20,19.10
2015,06,30,02,21,19.10
2015,06,30,02,22,19.10
2015,06,30,02,23,19.10
2015,06,30,02,24,19.10
2015,06,30,02,25,19.10
2015,06,30,02,26,19.10
2015,06,30,02,27,19.10
2015,06,30,02,28,19.10
2015,06,30,02,29,19.00
2015,06,30,02,30,19.00
2015,06,30,02,31,19.00
2015,06,30,02,32,19.00
2015,06,30,02,33,19.00
2015,06,30,02,34,19.00
2015,06,30,02,35,18.90
2015,06,30,02,36,18.90
2015,06,30,02,37,18.90
2015,06,30,02,38,18.90
2015,06,30,02,39,18.90
2015,06,30,02,40,18.80
2015,06,30,02,41,18.80
2015,06,30,02,42,18.80
2015,06,30,02,43,18.80
2015,06,30,02,44,18.80
2015,06,30,02,45,18.70
2015,06,30,02,46,18.70
2015,06,30,02,47,18.70
2015,06,30,02,48,18.70
2015,06,30,02,49,18.70
2015,06,30,02,50,18.70
2015,06,30,02,51,18.60
2015,06,30,02,52,18.60
2015,06,30,02,53,18.60
2015,06,30,02,54,18.60
2015,06,30,02,55,18.60
2015,06,30,02,56,18.60
2015,06,30,02,57,18.60
2015,06,30,02,58,18.50
2015,06,30,02,59,18.50
2015,06,30,03,00,18.50
2015,06,30,03,01,18.50
2015,06,30,03,02,18.40
2015,06,30,03,03,18.40
2015,06,30,03,04,18.40
2015,06,30,03,05,18.40
2015,06,30,03,06,18.40
2015,06,30,03,07,18.40
2015,06,30,03,08,18.40
2015,06,30,03,09,18.30
2015,06,30,03,10,18.30
2015,06,30,03,11,18.30
2015,06,30,03,12,18.30
2015,06,30,03,13,18.30
2015,06,30,03,14,18.30
2015,06,30,03,15,18.20
2015,06,30,03,16,18.20
2015,06,30,03,17,18.20
2015,06,30,03,18,18.20
2015,06,30,03,19,18.20
2015,06,30,03,20,18.10
2015,06,30,03,21,18.10
2015,06,30,03,22,18.10
2015,06,30,03,23,18.10
2015,06,30,03,24,18.00
2015,06,30,03,25,18.00
2015,06,30,03,26,18.00
2015,06,30,03,27,18.00
2015,06,30,03,28,18.00
2015,06,30,03,29,17.90
2015,06,30,03,30,17.90
2015,06,30,03,31,17.90
2015,06,30,03,32,17.90
2015,06,30,03,33,17.90
2015,06,30,03,34,17.90
2015,06,30,03,35,17.90
2015,06,30,03,36,17.80
2015,06,30,03,37,17.80
2015,06,30,03,38,17.80
2015,06,30,03,39,17.80
2015,06,30,03,40,17.80
2015,06,30,03,41,17.70
2015,06,30,03,42,17.70
2015,06,30,03,43,17.70
2015,06,30,03,44,17.70
2015,06,30,03,45,17.70
2015,06,30,03,46,17.70
2015,06,30,03,47,17.60
2015,06,30,03,48,17.60
2015,06,30,03,49,17.60
2015,06,30,03,50,17.60
2015,06,30,03,51,17.60
2015,06,30,03,52,17.60
2015,06,30,03,53,17.60
2015,06,30,03,54,17.50
2015,06,30,03,55,17.50
2015,06,30,03,56,17.50
2015,06,30,03,57,17.50
2015,06,30,03,58,17.40
2015,06,30,03,59,17.40
2015,06,30,04,00,17.40
2015,06,30,04,01,17.40
2015,06,30,04,02,17.40
2015,06,30,04,03,17.40
2015,06,30,04,04,17.40
2015,06,30,04,05,17.40
2015,06,30,04,06,17.40
2015,06,30,04,07,17.40
2015,06,30,04,08,17.30
2015,06,30,04,09,17.30
2015,06,30,04,10,17.30
2015,06,30,04,11,17.30
2015,06,30,04,12,17.30
2015,06,30,04,13,17.30
2015,06,30,04,14,17.30
2015,06,30,04,15,17.30
2015,06,30,04,16,17.30
2015,06,30,04,17,17.30
2015,06,30,04,18,17.30
2015,06,30,04,19,17.30
2015,06,30,04,20,17.30
2015,06,30,04,21,17.30
2015,06,30,04,22,17.30
2015,06,30,04,23,17.30
2015,06,30,04,24,17.30
2015,06,30,04,25,17.30
2015,06,30,04,26,17.30
2015,06,30,04,27,17.20
2015,06,30,04,28,17.20
2015,06,30,04,29,17.20
2015,06,30,04,30,17.20
2015,06,30,04,31,17.20
2015,06,30,04,32,17.20
2015,06,30,04,33,17.20
2015,06,30,04,34,17.20
2015,06,30,04,35,17.20
2015,06,30,04,36,17.20
2015,06,30,04,37,17.10
2015,06,30,04,38,17.10
2015,06,30,04,39,17.10
2015,06,30,04,40,17.10
2015,06,30,04,41,17.00
2015,06,30,04,42,17.00
2015,06,30,04,43,17.00
2015,06,30,04,44,16.90
2015,06,30,04,45,16.90
2015,06,30,04,46,16.90
2015,06,30,04,47,16.90
2015,06,30,04,48,16.90
2015,06,30,04,49,16.80
2015,06,30,04,50,16.80
2015,06,30,04,51,16.80
2015,06,30,04,52,16.80
2015,06,30,04,53,16.80
2015,06,30,04,54,16.70
2015,06,30,04,55,16.70
2015,06,30,04,56,16.60
2015,06,30,04,57,16.60
2015,06,30,04,58,16.60
2015,06,30,04,59,16.50
2015,06,30,05,00,16.50
2015,06,30,05,01,16.40
2015,06,30,05,02,16.40
2015,06,30,05,03,16.30
2015,06,30,05,04,16.20
2015,06,30,05,05,16.20
2015,06,30,05,06,16.10
2015,06,30,05,07,16.10
2015,06,30,05,08,16.00
2015,06,30,05,09,16.00
2015,06,30,05,10,15.90
2015,06,30,05,11,15.90
2015,06,30,05,12,15.90
2015,06,30,05,13,15.90
2015,06,30,05,14,15.90
2015,06,30,05,15,15.80
2015,06,30,05,16,15.80
2015,06,30,05,17,15.80
2015,06,30,05,18,15.80
2015,06,30,05,19,15.80
2015,06,30,05,20,15.80
2015,06,30,05,21,15.80
2015,06,30,05,22,15.80
2015,06,30,05,23,15.80
2015,06,30,05,24,15.80
2015,06,30,05,25,15.70
2015,06,30,05,26,15.70
2015,06,30,05,27,15.70
2015,06,30,05,28,15.70
2015,06,30,05,29,15.70
2015,06,30,05,30,15.70
2015,06,30,05,31,15.70
2015,06,30,05,32,15.70
2015,06,30,05,33,15.60
2015,06,30,05,34,15.60
2015,06,30,05,35,15.60
2015,06,30,05,36,15.60
2015,06,30,05,37,15.60
2015,06,30,05,38,15.60
2015,06,30,05,39,15.60
2015,06,30,05,40,15.60
2015,06,30,05,41,15.60
2015,06,30,05,42,15.60
2015,06,30,05,43,15.60
2015,06,30,05,44,15.60
2015,06,30,05,45,15.60
2015,06,30,05,46,15.60
2015,06,30,05,47,15.60
2015,06,30,05,48,15.70
2015,06,30,05,49,15.70
2015,06,30,05,50,15.70
2015,06,30,05,51,15.70
2015,06,30,05,52,15.70
2015,06,30,05,53,15.80
2015,06,30,05,54,15.80
2015,06,30,05,55,15.80
2015,06,30,05,56,15.80
2015,06,30,05,57,15.90
2015,06,30,05,58,15.90
2015,06,30,05,59,15.90
2015,06,30,06,00,16.00
2015,06,30,06,01,16.00
2015,06,30,06,02,16.00
2015,06,30,06,03,16.00
2015,06,30,06,04,16.00
2015,06,30,06,05,16.10
2015,06,30,06,06,16.10
2015,06,30,06,07,16.10
2015,06,30,06,08,16.10
2015,06,30,06,09,16.10
2015,06,30,06,10,16.20
2015,06,30,06,11,16.20
2015,06,30,06,12,16.20
2015,06,30,06,13,16.20
2015,06,30,06,14,16.20
2015,06,30,06,15,16.20
2015,06,30,06,16,16.30
2015,06,30,06,17,16.30
2015,06,30,06,18,16.30
2015,06,30,06,19,16.30
2015,06,30,06,20,16.40
2015,06,30,06,21,16.40
2015,06,30,06,22,16.40
2015,06,30,06,23,16.40
2015,06,30,06,24,16.50
2015,06,30,06,25,16.50
2015,06,30,06,26,16.50
2015,06,30,06,27,16.60
2015,06,30,06,28,16.60
2015,06,30,06,29,16.60
2015,06,30,06,30,16.60
2015,06,30,06,31,16.60
2015,06,30,06,32,16.60
2015,06,30,06,33,16.60
2015,06,30,06,34,16.60
2015,06,30,06,35,16.60
2015,06,30,06,36,16.60
2015,06,30,06,37,16.60
2015,06,30,06,38,16.60
2015,06,30,06,39,16.60
2015,06,30,06,40,16.50
2015,06,30,06,41,16.50
2015,06,30,06,42,16.50
2015,06,30,06,43,16.50
2015,06,30,06,44,16.40
2015,06,30,06,45,16.40
2015,06,30,06,46,16.40
2015,06,30,06,47,16.40
2015,06,30,06,48,16.40
2015,06,30,06,49,16.40
2015,06,30,06,50,16.50
2015,06,30,06,51,16.50
2015,06,30,06,52,16.50
2015,06,30,06,53,16.60
2015,06,30,06,54,16.50
2015,06,30,06,55,16.50
2015,06,30,06,56,16.50
2015,06,30,06,57,16.50
2015,06,30,06,58,16.40
2015,06,30,06,59,16.40
2015,06,30,07,00,16.40
2015,06,30,07,01,16.40
2015,06,30,07,02,16.50
2015,06,30,07,03,16.50
2015,06,30,07,04,16.50
2015,06,30,07,05,16.50
2015,06,30,07,06,16.50
2015,06,30,07,07,16.50
2015,06,30,07,08,16.40
2015,06,30,07,09,16.40
2015,06,30,07,10,16.40
2015,06,30,07,11,16.40
2015,06,30,07,12,16.40
2015,06,30,07,13,16.40
2015,06,30,07,14,16.40
2015,06,30,07,15,16.30
2015,06,30,07,16,16.30
2015,06,30,07,17,16.30
2015,06,30,07,18,16.30
2015,06,30,07,19,16.40
2015,06,30,07,20,16.40
2015,06,30,07,21,16.40
2015,06,30,07,22,16.40
2015,06,30,07,23,16.40
2015,06,30,07,24,16.40
2015,06,30,07,25,16.50
2015,06,30,07,26,16.50
2015,06,30,07,27,16.60
2015,06,30,07,28,16.60
2015,06,30,07,29,16.60
2015,06,30,07,30,16.60
2015,06,30,07,31,16.60
2015,06,30,07,32,16.60
2015,06,30,07,33,16.70
2015,06,30,07,34,16.70
2015,06,30,07,35,16.80
2015,06,30,07,36,16.90
2015,06,30,07,37,16.90
2015,06,30,07,38,16.90
2015,06,30,07,39,16.90
2015,06,30,07,40,16.90
2015,06,30,07,41,17.00
2015,06,30,07,42,17.00
2015,06,30,07,43,17.10
2015,06,30,07,44,17.10
2015,06,30,07,45,17.20
2015,06,30,07,46,17.20
2015,06,30,07,47,17.30
2015,06,30,07,48,17.30
2015,06,30,07,49,17.40
2015,06,30,07,50,17.40
2015,06,30,07,51,17.40
2015,06,30,07,52,17.50
2015,06,30,07,53,17.50
2015,06,30,07,54,17.60
2015,06,30,07,55,17.60
2015,06,30,07,56,17.50
2015,06,30,07,57,17.50
2015,06,30,07,58,17.50
2015,06,30,07,59,17.40
2015,06,30,08,00,17.40
2015,06,30,08,01,17.40
2015,06,30,08,02,17.40
2015,06,30,08,03,17.40
2015,06,30,08,04,17.40
2015,06,30,08,05,17.40
2015,06,30,08,06,17.40
2015,06,30,08,07,17.30
2015,06,30,08,08,17.30
2015,06,30,08,09,17.20
2015,06,30,08,10,17.10
2015,06,30,08,11,17.10
2015,06,30,08,12,17.00
2015,06,30,08,13,17.00
2015,06,30,08,14,16.90
2015,06,30,08,15,16.90
2015,06,30,08,16,16.90
2015,06,30,08,17,16.90
2015,06,30,08,18,16.90
2015,06,30,08,19,16.90
2015,06,30,08,20,16.80
2015,06,30,08,21,16.80
2015,06,30,08,22,16.80
2015,06,30,08,23,16.80
2015,06,30,08,24,16.70
2015,06,30,08,25,16.70
2015,06,30,08,26,16.70
2015,06,30,08,27,16.70
2015,06,30,08,28,16.70
2015,06,30,08,29,16.70
2015,06,30,08,30,16.80
2015,06,30,08,31,16.80
2015,06,30,08,32,16.80
2015,06,30,08,33,16.80
2015,06,30,08,34,16.90
2015,06,30,08,35,16.90
2015,06,30,08,36,16.90
2015,06,30,08,37,17.00
2015,06,30,08,38,17.10
2015,06,30,08,39,17.10
2015,06,30,08,40,17.10
2015,06,30,08,41,17.20
2015,06,30,08,42,17.10
2015,06,30,08,43,17.10
2015,06,30,08,44,17.00
2015,06,30,08,45,16.90
2015,06,30,08,46,17.00
2015,06,30,08,47,17.00
2015,06,30,08,48,17.10
2015,06,30,08,49,17.20
2015,06,30,08,50,17.30
2015,06,30,08,51,17.40
2015,06,30,08,52,17.60
2015,06,30,08,53,17.70
2015,06,30,08,54,17.70
2015,06,30,08,55,17.80
2015,06,30,08,56,17.80
2015,06,30,08,57,17.90
2015,06,30,08,58,17.90
2015,06,30,08,59,18.00
2015,06,30,09,00,18.00
2015,06,30,09,01,18.10
2015,06,30,09,02,18.20
2015,06,30,09,03,18.30
2015,06,30,09,04,18.30
2015,06,30,09,05,18.30
2015,06,30,09,06,18.20
2015,06,30,09,07,18.20
2015,06,30,09,08,18.20
2015,06,30,09,09,18.20
2015,06,30,09,10,18.20
2015,06,30,09,11,18.20
2015,06,30,09,12,18.20
2015,06,30,09,13,18.30
2015,06,30,09,14,18.40
2015,06,30,09,15,18.40
2015,06,30,09,16,18.50
2015,06,30,09,17,18.60
2015,06,30,09,18,18.70
2015,06,30,09,19,18.70
2015,06,30,09,20,18.70
2015,06,30,09,21,18.70
2015,06,30,09,22,18.60
2015,06,30,09,23,18.50
2015,06,30,09,24,18.40
2015,06,30,09,25,18.30
2015,06,30,09,26,18.20
2015,06,30,09,27,18.20
2015,06,30,09,28,18.20
2015,06,30,09,29,18.20
2015,06,30,09,30,18.20
2015,06,30,09,31,18.30
2015,06,30,09,32,18.30
2015,06,30,09,33,18.30
2015,06,30,09,34,18.30
2015,06,30,09,35,18.20
2015,06,30,09,36,18.20
2015,06,30,09,37,18.30
2015,06,30,09,38,18.30
2015,06,30,09,39,18.30
2015,06,30,09,40,18.40
2015,06,30,09,41,18.50
2015,06,30,09,42,18.50
2015,06,30,09,43,18.60
2015,06,30,09,44,18.60
2015,06,30,09,45,18.60
2015,06,30,09,46,18.60
2015,06,30,09,47,18.70
2015,06,30,09,48,18.70
2015,06,30,09,49,18.80
2015,06,30,09,50,18.80
2015,06,30,09,51,18.80
2015,06,30,09,52,18.80
2015,06,30,09,53,18.80
2015,06,30,09,54,18.80
2015,06,30,09,55,18.80
2015,06,30,09,56,18.80
2015,06,30,09,57,18.80
2015,06,30,09,58,18.90
2015,06,30,09,59,18.90
2015,06,30,10,00,18.90
2015,06,30,10,01,19.00
2015,06,30,10,02,19.00
2015,06,30,10,03,19.10
2015,06,30,10,04,19.20
2015,06,30,10,05,19.30
2015,06,30,10,06,19.40
2015,06,30,10,07,19.40
2015,06,30,10,08,19.50
2015,06,30,10,09,19.60
2015,06,30,10,10,19.70
2015,06,30,10,11,19.70
2015,06,30,10,12,19.80
2015,06,30,10,13,19.80
2015,06,30,10,14,19.70
2015,06,30,10,15,19.70
2015,06,30,10,16,19.70
2015,06,30,10,17,19.70
2015,06,30,10,18,19.70
2015,06,30,10,19,19.70
2015,06,30,10,20,19.80
2015,06,30,10,21,19.80
2015,06,30,10,22,19.80
2015,06,30,10,23,19.80
2015,06,30,10,24,19.80
2015,06,30,10,25,19.80
2015,06,30,10,26,19.80
2015,06,30,10,27,19.80
2015,06,30,10,28,19.80
2015,06,30,10,29,19.80
2015,06,30,10,30,19.80
2015,06,30,10,31,19.80
2015,06,30,10,32,19.80
2015,06,30,10,33,19.80
2015,06,30,10,34,19.80
2015,06,30,10,35,19.70
2015,06,30,10,36,19.70
2015,06,30,10,37,19.70
2015,06,30,10,38,19.80
2015,06,30,10,39,19.90
2015,06,30,10,40,19.90
2015,06,30,10,41,20.00
2015,06,30,10,42,20.10
2015,06,30,10,43,20.20
2015,06,30,10,44,20.30
2015,06,30,10,45,20.40
2015,06,30,10,46,20.50
2015,06,30,10,47,20.60
2015,06,30,10,48,20.60
2015,06,30,10,49,20.70
2015,06,30,10,50,20.80
2015,06,30,10,51,20.90
2015,06,30,10,52,20.90
2015,06,30,10,53,21.00
2015,06,30,10,54,21.10
2015,06,30,10,55,21.10
2015,06,30,10,56,21.20
2015,06,30,10,57,21.30
2015,06,30,10,58,21.30
2015,06,30,10,59,21.40
2015,06,30,11,00,21.40
2015,06,30,11,01,21.40
2015,06,30,11,02,21.40
2015,06,30,11,03,21.40
2015,06,30,11,04,21.40
2015,06,30,11,05,21.40
2015,06,30,11,06,21.40
2015,06,30,11,07,21.30
2015,06,30,11,08,21.20
2015,06,30,11,09,21.10
2015,06,30,11,10,21.10
2015,06,30,11,11,21.00
2015,06,30,11,12,20.90
2015,06,30,11,13,20.90
2015,06,30,11,14,20.90
2015,06,30,11,15,20.90
2015,06,30,11,16,20.90
2015,06,30,11,17,21.00
2015,06,30,11,18,21.10
2015,06,30,11,19,21.20
2015,06,30,11,20,21.30
2015,06,30,11,21,21.30
2015,06,30,11,22,21.30
2015,06,30,11,23,21.30
2015,06,30,11,24,21.30
2015,06,30,11,25,21.20
2015,06,30,11,26,21.10
2015,06,30,11,27,21.00
2015,06,30,11,28,20.80
2015,06,30,11,29,20.70
2015,06,30,11,30,20.60
2015,06,30,11,31,20.50
2015,06,30,11,32,20.40
2015,06,30,11,33,20.20
2015,06,30,11,34,20.00
2015,06,30,11,35,19.80
2015,06,30,11,36,19.60
2015,06,30,11,37,19.50
2015,06,30,11,38,19.40
2015,06,30,11,39,19.30
2015,06,30,11,40,19.30
2015,06,30,11,41,19.30
2015,06,30,11,42,19.30
2015,06,30,11,43,19.30
2015,06,30,11,44,19.40
2015,06,30,11,45,19.50
2015,06,30,11,46,19.50
2015,06,30,11,47,19.60
2015,06,30,11,48,19.60
2015,06,30,11,49,19.70
2015,06,30,11,50,19.80
2015,06,30,11,51,19.80
2015,06,30,11,52,19.90
2015,06,30,11,53,19.90
2015,06,30,11,54,20.00
2015,06,30,11,55,20.00
2015,06,30,11,56,20.00
2015,06,30,11,57,20.10
2015,06,30,11,58,20.10
2015,06,30,11,59,20.10
2015,06,30,12,00,20.20
2015,06,30,12,01,20.20
2015,06,30,12,02,20.30
2015,06,30,12,03,20.40
2015,06,30,12,04,20.40
2015,06,30,12,05,20.40
2015,06,30,12,06,20.40
2015,06,30,12,07,20.40
2015,06,30,12,08,20.40
2015,06,30,12,09,20.50
2015,06,30,12,10,20.50
2015,06,30,12,11,20.50
2015,06,30,12,12,20.50
2015,06,30,12,13,20.50
2015,06,30,12,14,20.50
2015,06,30,12,15,20.50
2015,06,30,12,16,20.50
2015,06,30,12,17,20.50
2015,06,30,12,18,20.60
2015,06,30,12,19,20.70
2015,06,30,12,20,20.70
2015,06,30,12,21,20.70
2015,06,30,12,22,20.80
2015,06,30,12,23,20.80
2015,06,30,12,24,20.80
2015,06,30,12,25,20.80
2015,06,30,12,26,20.80
2015,06,30,12,27,20.80
2015,06,30,12,28,20.70
2015,06,30,12,29,20.60
2015,06,30,12,30,20.50
2015,06,30,12,31,20.40
2015,06,30,12,32,20.30
2015,06,30,12,33,20.30
2015,06,30,12,34,20.40
2015,06,30,12,35,20.50
2015,06,30,12,36,20.60
2015,06,30,12,37,20.70
2015,06,30,12,38,20.80
2015,06,30,12,39,20.90
2015,06,30,12,40,20.90
2015,06,30,12,41,20.80
2015,06,30,12,42,20.70
2015,06,30,12,43,20.60
2015,06,30,12,44,20.50
2015,06,30,12,45,20.50
2015,06,30,12,46,20.50
2015,06,30,12,47,20.50
2015,06,30,12,48,20.60
2015,06,30,12,49,20.70
2015,06,30,12,50,20.80
2015,06,30,12,51,20.90
2015,06,30,12,52,20.90
2015,06,30,12,53,20.90
2015,06,30,12,54,20.90
2015,06,30,12,55,20.80
2015,06,30,12,56,20.70
2015,06,30,12,57,20.50
2015,06,30,12,58,20.40
2015,06,30,12,59,20.30
2015,06,30,13,00,20.20
2015,06,30,13,01,20.10
2015,06,30,13,02,20.00
2015,06,30,13,03,19.90
2015,06,30,13,04,19.80
2015,06,30,13,05,19.80
2015,06,30,13,06,19.90
2015,06,30,13,07,19.90
2015,06,30,13,08,20.00
2015,06,30,13,09,20.00
2015,06,30,13,10,20.10
2015,06,30,13,11,20.00
2015,06,30,13,12,19.90
2015,06,30,13,13,19.90
2015,06,30,13,14,19.90
2015,06,30,13,15,19.80
2015,06,30,13,16,19.80
2015,06,30,13,17,19.80
2015,06,30,13,18,19.80
2015,06,30,13,19,19.80
2015,06,30,13,20,19.80
2015,06,30,13,21,19.80
2015,06,30,13,22,19.80
2015,06,30,13,23,19.80
2015,06,30,13,24,19.80
2015,06,30,13,25,19.90
2015,06,30,13,26,20.10
2015,06,30,13,27,20.10
2015,06,30,13,28,20.10
2015,06,30,13,29,20.10
2015,06,30,13,30,20.10
2015,06,30,13,31,20.10
2015,06,30,13,32,20.10
2015,06,30,13,33,20.10
2015,06,30,13,34,20.00
2015,06,30,13,35,20.00
2015,06,30,13,36,19.90
2015,06,30,13,37,19.80
2015,06,30,13,38,19.80
2015,06,30,13,39,19.80
2015,06,30,13,40,19.80
2015,06,30,13,41,19.80
2015,06,30,13,42,19.70
2015,06,30,13,43,19.70
2015,06,30,13,44,19.70
2015,06,30,13,45,19.60
2015,06,30,13,46,19.50
2015,06,30,13,47,19.30
2015,06,30,13,48,19.10
2015,06,30,13,49,18.90
2015,06,30,13,50,18.80
2015,06,30,13,51,18.60
2015,06,30,13,52,18.50
2015,06,30,13,53,18.50
2015,06,30,13,54,18.50
2015,06,30,13,55,18.40
2015,06,30,13,56,18.40
2015,06,30,13,57,18.30
2015,06,30,13,58,18.30
2015,06,30,13,59,18.30
2015,06,30,14,00,18.40
2015,06,30,14,01,18.40
2015,06,30,14,02,18.50
2015,06,30,14,03,18.60
2015,06,30,14,04,18.70
2015,06,30,14,05,18.80
2015,06,30,14,06,19.00
2015,06,30,14,07,19.10
2015,06,30,14,08,19.20
2015,06,30,14,09,19.30
2015,06,30,14,10,19.30
2015,06,30,14,11,19.30
2015,06,30,14,12,19.30
2015,06,30,14,13,19.20
2015,06,30,14,14,19.10
2015,06,30,14,15,19.00
2015,06,30,14,16,18.80
2015,06,30,14,17,18.70
2015,06,30,14,18,18.60
2015,06,30,14,19,18.50
2015,06,30,14,20,18.30
2015,06,30,14,21,18.20
2015,06,30,14,22,18.10
2015,06,30,14,23,18.20
2015,06,30,14,24,18.20
2015,06,30,14,25,18.30
2015,06,30,14,26,18.30
2015,06,30,14,27,18.40
2015,06,30,14,28,18.40
2015,06,30,14,29,18.50
2015,06,30,14,30,18.50
2015,06,30,14,31,18.50
2015,06,30,14,32,18.60
2015,06,30,14,33,18.70
2015,06,30,14,34,18.80
2015,06,30,14,35,18.80
2015,06,30,14,36,18.80
2015,06,30,14,37,18.90
2015,06,30,14,38,18.90
2015,06,30,14,39,18.90
2015,06,30,14,40,19.00
2015,06,30,14,41,19.00
2015,06,30,14,42,19.10
2015,06,30,14,43,19.20
2015,06,30,14,44,19.30
2015,06,30,14,45,19.30
2015,06,30,14,46,19.30
2015,06,30,14,47,19.20
2015,06,30,14,48,19.20
2015,06,30,14,49,19.20
2015,06,30,14,50,19.10
2015,06,30,14,51,19.10
2015,06,30,14,52,19.00
2015,06,30,14,53,18.90
2015,06,30,14,54,18.80
2015,06,30,14,55,18.70
2015,06,30,14,56,18.60
2015,06,30,14,57,18.40
2015,06,30,14,58,18.40
2015,06,30,14,59,18.30
2015,06,30,15,00,18.30
2015,06,30,15,01,18.30
2015,06,30,15,02,18.30
2015,06,30,15,03,18.30
2015,06,30,15,04,18.30
2015,06,30,15,05,18.40
2015,06,30,15,06,18.40
2015,06,30,15,07,18.40
2015,06,30,15,08,18.40
2015,06,30,15,09,18.40
2015,06,30,15,10,18.40
2015,06,30,15,11,18.30
2015,06,30,15,12,18.30
2015,06,30,15,13,18.30
2015,06,30,15,14,18.40
2015,06,30,15,15,18.50
2015,06,30,15,16,18.50
2015,06,30,15,17,18.50
2015,06,30,15,18,18.50
2015,06,30,15,19,18.50
2015,06,30,15,20,18.60
2015,06,30,15,21,18.60
2015,06,30,15,22,18.50
2015,06,30,15,23,18.50
2015,06,30,15,24,18.50
2015,06,30,15,25,18.50
2015,06,30,15,26,18.60
2015,06,30,15,27,18.60
2015,06,30,15,28,18.70
2015,06,30,15,29,18.70
2015,06,30,15,30,18.70
2015,06,30,15,31,18.70
2015,06,30,15,32,18.70
2015,06,30,15,33,18.80
2015,06,30,15,34,18.90
2015,06,30,15,35,18.90
2015,06,30,15,36,19.00
2015,06,30,15,37,19.10
2015,06,30,15,38,19.10
2015,06,30,15,39,19.20
2015,06,30,15,40,19.20
2015,06,30,15,41,19.30
2015,06,30,15,42,19.30
2015,06,30,15,43,19.20
2015,06,30,15,44,19.20
2015,06,30,15,45,19.10
2015,06,30,15,46,19.00
2015,06,30,15,47,18.90
2015,06,30,15,48,18.80
2015,06,30,15,49,18.80
2015,06,30,15,50,18.70
2015,06,30,15,51,18.70
2015,06,30,15,52,18.80
2015,06,30,15,53,18.70
2015,06,30,15,54,18.70
2015,06,30,15,55,18.70
2015,06,30,15,56,18.70
2015,06,30,15,57,18.60
2015,06,30,15,58,18.60
2015,06,30,15,59,18.50
2015,06,30,16,00,18.40
2015,06,30,16,01,18.20
2015,06,30,16,02,18.00
2015,06,30,16,03,17.90
2015,06,30,16,04,17.80
2015,06,30,16,05,17.60
2015,06,30,16,06,17.50
2015,06,30,16,07,17.50
2015,06,30,16,08,17.40
2015,06,30,16,09,17.40
2015,06,30,16,10,17.30
2015,06,30,16,11,17.20
2015,06,30,16,12,17.20
2015,06,30,16,13,17.30
2015,06,30,16,14,17.30
2015,06,30,16,15,17.30
2015,06,30,16,16,17.20
2015,06,30,16,17,17.20
2015,06,30,16,18,17.20
2015,06,30,16,19,17.20
2015,06,30,16,20,17.00
2015,06,30,16,21,16.90
2015,06,30,16,22,16.80
2015,06,30,16,23,16.80
2015,06,30,16,24,16.80
2015,06,30,16,25,16.70
2015,06,30,16,26,16.60
2015,06,30,16,27,16.60
2015,06,30,16,28,16.60
2015,06,30,16,29,16.70
2015,06,30,16,30,16.70
2015,06,30,16,31,16.80
2015,06,30,16,32,16.80
2015,06,30,16,33,16.80
2015,06,30,16,34,16.80
2015,06,30,16,35,16.80
2015,06,30,16,36,16.80
2015,06,30,16,37,16.90
2015,06,30,16,38,17.00
2015,06,30,16,39,17.20
2015,06,30,16,40,17.20
2015,06,30,16,41,17.20
2015,06,30,16,42,17.30
2015,06,30,16,43,17.40
2015,06,30,16,44,17.40
2015,06,30,16,45,17.40
2015,06,30,16,46,17.50
2015,06,30,16,47,17.50
2015,06,30,16,48,17.50
2015,06,30,16,49,17.50
2015,06,30,16,50,17.40
2015,06,30,16,51,17.40
2015,06,30,16,52,17.50
2015,06,30,16,53,17.50
2015,06,30,16,54,17.50
2015,06,30,16,55,17.60
2015,06,30,16,56,17.60
2015,06,30,16,57,17.70
2015,06,30,16,58,17.70
2015,06,30,16,59,17.80
2015,06,30,17,00,17.90
2015,06,30,17,01,18.00
2015,06,30,17,02,18.00
2015,06,30,17,03,18.00
2015,06,30,17,04,18.10
2015,06,30,17,05,18.10
2015,06,30,17,06,18.00
2015,06,30,17,07,17.90
2015,06,30,17,08,17.90
2015,06,30,17,09,17.90
2015,06,30,17,10,17.90
2015,06,30,17,11,17.80
2015,06,30,17,12,17.90
2015,06,30,17,13,17.90
2015,06,30,17,14,17.90
2015,06,30,17,15,18.00
2015,06,30,17,16,18.00
2015,06,30,17,17,18.10
2015,06,30,17,18,18.20
2015,06,30,17,19,18.20